Location: Sportsmans Village
(34.9729°N, 76.5921°W)
Time: 05:16:31
(UTC+00:00)

Daily predictions for brighter satellites

Satellite Brightness Start Highest point End
(mag) Time Altitude Azimuth Time Altitude Azimuth Time Altitude Azimuth
Meteor 2-4 Rocket 4.1 00:03:44 10° SSW 00:09:36 68° W 00:13:23 22° N
Cosmos 1943 Rocket 2.7 00:10:29 10° NNW 00:14:26 46° N 00:14:26 46° N
Lacrosse 5 2.4 00:13:08 10° SW 00:18:07 53° NW 00:18:10 53° NW
CZ-3B R/B 3.1 00:14:28 10° SW 00:19:32 35° SSE 00:19:44 35° SSE
CSL-04 Rocket 4.5 00:14:47 10° S 00:19:51 48° W 00:24:58 10° NNW
CZ-4C R/B 3.2 08:58:50 69° ESE 08:58:50 69° ESE 09:06:21 10° SE
Cosmos 2263 Rocket 3.9 09:18:16 24° NNE 09:18:16 24° NNE 09:20:23 10° NNE
Cosmos 1140 Rocket 4.2 09:38:19 45° SSE 09:38:19 45° SSE 09:41:52 10° SSE
Cosmos 44 3.7 09:41:53 56° ESE 09:41:53 56° ESE 09:46:23 10° NE
Cosmos 1452 Rocket 4.4 09:45:24 39° NNE 09:45:24 39° NNE 09:48:40 10° NNE
FALCON 9 R/B 2.9 09:42:31 61° W 09:44:06 88° S 10:05:07 10° E
USA 234 3.3 09:45:46 10° NE 09:52:07 56° NW 09:52:25 55° NW
Timation 1 Rocket 4.2 09:53:51 68° NW 09:53:51 68° NW 09:59:37 10° NNE
COSMO-SKYMED 1 4.1 09:51:01 10° SE 09:54:55 34° ENE 09:58:09 14° NNE
ALOS 3.7 09:53:38 10° NNE 09:58:00 38° E 10:02:19 10° SSE
Centaur D AC-28 4.4 09:56:11 26° SW 10:00:15 37° S 10:38:37 10° SE
Centaur D AC-28 4.4 09:56:11 25° SW 10:00:15 37° S 10:38:37 10° SE
COBE Rocket 3.7 09:55:39 10° S 10:00:12 72° SW 10:00:12 72° SW
Cosmos 1092 Rocket 3.8 09:57:17 15° N 10:02:30 90° WSW 10:08:37 10° S
STARLINK 1067 4.3 10:03:54 42° ENE 10:03:54 42° ENE 10:07:00 10° ESE
STARLINK 1058 4.1 10:07:07 46° NE 10:07:07 46° NE 10:10:25 10° ESE
GPS 2-04 Rocket1 3.7 10:06:44 37° S 10:07:12 38° SSE 10:10:57 10° E
Cosmos 1340 2.9 10:03:57 10° S 10:07:40 67° E 10:11:25 10° NNE
Cosmos 1703 Rocket 3.4 10:09:15 76° W 10:09:17 76° W 10:13:38 10° S
Cosmos 1943 3.1 10:07:05 33° NNW 10:09:42 85° ENE 10:15:18 10° SSE
Cosmos 1346 Rocket 3.1 10:06:22 10° S 10:10:10 64° E 10:14:01 10° NNE
STARLINK 1043 3.9 10:10:24 50° NE 10:10:24 50° NE 10:13:52 10° ESE
Hubble Space Telescope 3.6 10:10:50 10° S 10:12:08 11° SSE 10:13:26 10° SE
STARLINK 1065 3.7 10:13:38 55° NE 10:13:42 55° NE 10:17:15 10° ESE
STARLINK 1063 3.5 10:17:00 58° NNE 10:17:13 59° NE 10:20:48 10° ESE
OE (NEXTSAT) 4.5 10:18:04 69° NE 10:18:04 69° NE 10:21:31 10° ESE
Cosmos 1461 4.1 10:19:28 30° SW 10:19:28 30° SW 10:22:28 10° S
Cosmos 1869 Rocket 3.4 10:16:11 10° SSW 10:20:26 59° W 10:24:43 10° N
STARLINK 1064 3.4 10:20:12 60° N 10:20:33 65° NE 10:24:08 10° SE
Okean O Rocket 2.6 10:19:11 10° NNE 10:23:27 48° E 10:27:42 10° S
STARLINK 1041 3.3 10:23:29 60° N 10:23:58 71° NE 10:27:35 10° SE
BREEZE-M DEB (TANK) 4.0 10:25:27 12° NNE 10:25:31 12° NNE 10:26:27 10° ENE
Cosmos 1331 Rocket 4.3 10:21:03 10° S 10:26:07 67° ESE 10:31:16 10° NNE
STARLINK 1038 3.3 10:26:47 57° NNW 10:27:25 77° NE 10:31:02 10° SE
STARLINK 1046 3.2 10:30:06 54° NW 10:30:51 84° NE 10:34:28 10° SE
STARLINK 1027 2.9 10:31:14 61° S 10:31:14 61° S 10:33:53 10° SE
STARLINK 1028 2.9 10:31:26 61° S 10:31:26 61° S 10:34:03 10° SE
STARLINK 1021 2.9 10:31:38 61° S 10:31:38 61° S 10:34:15 10° SE
STARLINK 1019 2.8 10:31:49 62° SSW 10:31:49 62° SSW 10:34:32 10° SE
STARLINK 1012 2.8 10:32:05 60° SSW 10:32:05 60° SSW 10:34:44 10° SE
STARLINK 1010 2.8 10:32:19 60° SSW 10:32:19 60° SSW 10:34:59 10° SE
STARLINK 1026 2.8 10:32:32 60° SSW 10:32:32 60° SSW 10:35:12 10° SE
STARLINK 1013 2.8 10:32:45 60° SSW 10:32:45 60° SSW 10:35:25 10° SE
STARLINK 1009 2.8 10:32:59 60° SSW 10:32:59 60° SSW 10:35:40 10° SE
STARLINK 1015 2.8 10:33:09 60° SSW 10:33:09 60° SSW 10:35:51 10° SE
STARLINK 1016 2.8 10:33:22 59° SSW 10:33:22 59° SSW 10:36:04 10° SE
MOS 1-B 4.2 10:27:29 10° N 10:33:15 74° WNW 10:39:00 10° SSW
PAYLOAD B 4.2 10:27:46 10° NNE 10:33:20 86° ESE 10:38:53 10° SSW
STARLINK 1008 2.8 10:33:36 59° SSW 10:33:36 59° SSW 10:36:17 10° SE
STARLINK 1014 2.8 10:33:49 59° SSW 10:33:49 59° SSW 10:36:32 10° SE
STARLINK 1025 2.8 10:34:03 58° SSW 10:34:03 58° SSW 10:36:46 10° SE
STARLINK 1017 2.8 10:34:18 58° SSW 10:34:18 58° SSW 10:37:01 10° SSE
STARLINK 1039 3.1 10:33:24 49° NW 10:34:17 90° SW 10:37:55 10° SE
STARLINK 1023 2.8 10:34:29 58° SSW 10:34:29 58° SSW 10:37:13 10° SSE
NOSS 3-2 (A) 3.9 10:29:01 10° SSW 10:34:28 59° ESE 10:40:30 10° NE
STARLINK 1007 2.8 10:34:40 58° SSW 10:34:40 58° SSW 10:37:25 10° SSE
Cosmos 1603 4.1 10:32:39 31° WNW 10:34:38 41° WSW 10:39:54 10° S
STARLINK 1048 2.8 10:34:55 57° SSW 10:34:55 57° SSW 10:37:39 10° SSE
STARLINK 1049 2.8 10:35:07 57° SSW 10:35:07 57° SSW 10:37:52 10° SSE
STARLINK 1051 2.8 10:35:20 57° SW 10:35:20 57° SW 10:38:07 10° SSE
STARLINK 1037 2.8 10:35:35 56° SW 10:35:35 56° SW 10:38:21 10° SSE
STARLINK 1059 2.8 10:35:45 56° SW 10:35:45 56° SW 10:38:32 10° SSE
STARLINK 1052 2.8 10:35:56 56° SW 10:35:56 56° SW 10:38:41 10° SSE
STARLINK 1057 2.8 10:35:57 56° SW 10:35:57 56° SW 10:38:44 10° SSE
STARLINK 1068 2.9 10:36:24 55° SW 10:36:24 55° SW 10:39:11 10° SSE
STARLINK 1045 3.1 10:35:22 47° NW 10:36:20 85° SW 10:39:58 10° SE
STARLINK 1034 2.9 10:36:31 55° SW 10:36:31 55° SW 10:39:23 10° SSE
STARLINK 1029 2.9 10:36:38 54° SW 10:36:38 54° SW 10:39:24 10° SSE
STARLINK 1060 2.9 10:36:49 54° SW 10:36:49 54° SW 10:39:36 10° SSE
STARLINK 1030 2.9 10:37:02 54° SW 10:37:02 54° SW 10:39:54 10° SSE
STARLINK 1020 2.9 10:37:16 53° SW 10:37:16 53° SW 10:40:05 10° SSE
STARLINK 1040 3.1 10:37:54 47° SW 10:37:54 47° SW 10:40:37 10° SSE
STARLINK 1033 2.9 10:37:55 52° SW 10:37:55 52° SW 10:40:44 10° SSE
STARLINK 1031 2.9 10:38:08 52° SW 10:38:08 52° SW 10:40:58 10° SSE
STARLINK 1024 2.9 10:38:19 52° SW 10:38:21 52° SW 10:41:14 10° SSE
Geosat 4.3 10:33:33 10° SE 10:38:31 66° ENE 10:43:30 10° NNW
STARLINK 1035 2.9 10:38:35 51° SW 10:38:35 51° SW 10:41:26 10° SSE
Cosmos 1428 Rocket 4.4 10:32:22 10° N 10:38:41 75° W 10:44:57 10° S
STARLINK 1032 2.9 10:38:47 51° SW 10:38:49 51° SW 10:41:40 10° SSE
STARLINK 1011 2.9 10:38:58 50° SW 10:39:01 51° SW 10:41:53 10° SSE
STARLINK 1036 2.9 10:39:13 50° SW 10:39:14 50° SW 10:42:04 10° SSE
STARLINK 1047 2.9 10:39:40 49° SW 10:39:43 49° SW 10:42:33 10° SSE
Cosmos 1110 Rocket 3.8 10:36:04 10° SSW 10:41:14 77° WNW 10:46:26 10° NNE
Cosmos 2180 Rocket 4.5 10:35:24 10° S 10:41:30 85° E 10:47:41 10° N
SKYMED 2 3.5 10:38:37 10° S 10:42:54 63° W 10:46:48 13° NNW
Okean 1-7 3.7 10:43:34 29° WNW 10:44:39 34° W 10:48:35 10° SSW
USA 238 DEB 3.7 10:38:56 10° SSW 10:45:34 85° ESE 10:52:25 10° NNE
USA 238 3.7 10:39:04 10° SSW 10:45:40 84° ESE 10:52:30 10° NNE
PSLV R/B 3.1 10:45:37 40° N 10:45:44 40° NNE 10:48:02 10° E
CZ-4C R/B 4.1 10:44:05 21° W 10:46:10 23° WSW 10:52:17 10° SSW
CENTAUR R/B 4.2 10:46:02 10° S 10:51:06 34° ESE 10:56:47 10° NE
Meteor 2-4 Rocket 3.8 10:47:18 10° N 10:52:44 73° E 10:58:03 10° SSE
STARLINK 1044 3.8 10:54:07 26° WSW 10:54:34 28° SW 10:57:06 10° SSE
GEOS 3 Rocket 3.6 10:51:03 10° SE 10:56:07 87° ENE 11:01:12 10° NNW
Cosmos 2026 Rocket 4.3 10:52:31 10° NNW 10:58:20 44° W 11:04:14 10° SSW
Cosmos 2263 Rocket 3.7 11:00:04 15° NW 11:00:04 15° NW 11:02:28 10° NNW
Meteor 1-19 Rocket 4.3 10:54:06 10° NNW 10:59:33 58° W 11:05:08 10° S
Okean 1 4.2 11:00:08 19° NW 11:02:04 27° W 11:05:27 10° SSW
SJ-7 4.2 10:58:50 10° N 11:02:50 83° WNW 11:06:48 10° SSW
Cosmos 2279 Rocket 4.2 10:58:38 10° SSW 11:04:34 47° W 11:10:32 10° N
ATLAS CENTAUR R/B 4.0 11:04:30 10° NNE 11:06:23 13° NE 11:08:12 10° ENE
Cosmos 332 Rocket 3.9 11:02:23 10° SSW 11:07:09 51° WNW 11:11:57 10° N
STARLINK 1050 4.2 11:08:37 18° WNW 11:10:43 32° SW 11:13:57 10° SSE
ADEOS Rocket 4.3 11:04:13 10° SE 11:10:51 47° ENE 11:16:53 10° N
USA 116 4.3 11:07:29 10° S 11:11:46 51° W 11:16:34 10° NNW
STARLINK 1055 4.3 11:11:50 16° WNW 11:14:04 30° SW 11:17:14 10° S
STARLINK 1022 4.5 11:15:00 15° WNW 11:17:19 27° SW 11:20:25 10° S
FENGYUN 3A 4.3 11:16:21 10° N 11:21:05 32° WNW 11:25:48 10° SW
Okean 3 3.9 11:17:53 10° NNW 11:21:50 41° W 11:25:47 10° SSW
SMAP 3.2 11:19:19 10° NNE 11:23:59 80° ESE 11:28:37 10° S
Cosmos 1908 Rocket 3.9 11:20:08 10° S 11:24:35 75° E 11:29:03 10° N
SL-24 R/B 4.1 11:20:36 10° S 11:25:04 68° W 11:29:16 10° NNW
Cosmos 1536 2.8 11:21:37 10° SSW 11:25:39 66° W 11:29:41 10° N
Cosmos 371 Rocket 4.3 11:23:44 10° WSW 11:27:42 25° WNW 11:31:43 10° N
Cosmos 1844 Rocket 3.1 11:25:13 10° SW 11:30:26 40° WNW 11:35:40 10° N
COSMO-SKYMED 1 4.1 11:28:17 10° SW 11:31:07 17° W 11:33:58 10° NW
IRIDIUM 106 4.5 11:29:10 10° N 11:34:24 85° E 11:39:36 10° S
Cosmos 1844 4.0 11:29:07 10° SW 11:34:41 49° WNW 11:40:17 10° N
ALOS 3.6 11:31:55 10° NNW 11:35:05 18° WNW 11:38:15 10° WSW
H-2A R/B 2.7 11:32:35 10° N 11:36:19 62° WNW 11:40:04 10° SSW
Cosmos 1302 Rocket 4.2 11:31:16 10° SW 11:36:23 51° WNW 11:41:33 10° N
NOSS 3-2 (C) 3.3 11:30:51 10° SW 11:36:27 74° WNW 11:42:43 10° NNE
ATLAS 3B R/B 3.2 11:30:55 10° SSW 11:37:38 66° ESE 11:44:13 10° NE
Cosmos 405 3.3 11:35:27 10° NNW 11:38:50 45° W 11:42:11 10° SSW
CZ-4B R/B 4.0 11:36:51 10° N 11:41:44 31° WNW 11:46:37 10° SW
